User: anonymous   Login
Location: Staunton
(38.1490°N, 79.0720°W)
Time: 17:30:25
(UTC-04:00)
Language:

ISS - Orbit

View from above orbital plane
View from above orbital plane
View from above satellite
View from above satellite

Ground track
Ground track

The orbit data is extracted from the following two-line orbital elements,

1 25544U 98067A   19083.95561603  .00016717  00000-0  10270-3 0  9047
2 25544  51.6374  59.9596 0002263 116.6330 243.5053 15.52433590  2162
Epoch (UTC): 24 March 2019 22:56:05
Eccentricity: 0.0002263
inclination: 51.6374°
perigee height: 408 km
apogee height: 411 km
right ascension of ascending node: 59.9596°
argument of perigee: 116.6330°
revolutions per day: 15.52433590
mean anomaly at epoch: 243.5053°
orbit number at epoch: 216

The dashed part of the orbit path shows where the satellite is in the earth's shadow,  

DLR